DateTimeUTC,F1_A11,F1_S11,BsB_S11,BsG_S11,BsR_S11,BbsB_S11,BbsG_S11,BbsR_S11,BaB_A11,BaG_A11,BaR_A11,Tu_S11,T_S11,Uu_S11,U_S11,P_S11,T1_A11
2021-11-26T12:00:00Z,00000200,21000000,,,,,,,0000.09,-000.19,0000.47,18.9,25.8,,00.0,0642.6,30.9
2021-11-26T12:01:00Z,00000200,21000000,,,,,,,-000.11,0000.32,-000.16,18.9,25.8,,00.0,0642.6,30.9
2021-11-26T12:02:00Z,00000200,21000000,,,,,,,-000.10,0000.10,-000.03,18.9,25.9,,00.0,0642.5,30.9
2021-11-26T12:03:00Z,00000200,61000000,,,,,,,0000.50,0000.13,0000.47,18.9,25.9,,00.0,0642.5,30.9
2021-11-26T12:04:00Z,00000200,41000000,0000.03,-000.13,-000.18,-000.24,-000.05,0000.01,-000.03,-000.22,-000.29,19.3,25.8,,00.0,0643.4,30.9
2021-11-26T12:05:00Z,00000200,01000000,0000.05,-000.19,-000.09,-000.30,-000.22,0000.17,0000.06,0000.09,0000.12,19.4,25.8,,00.0,0643.5,30.9
2021-11-26T12:06:00Z,00000200,01000000,0001.20,-000.06,0000.36,0000.23,0000.29,0000.01,-000.49,-000.04,-000.06,19.5,25.9,,00.0,0643.5,30.9
2021-11-26T12:07:00Z,00000200,01000000,0000.26,0000.14,0000.26,-000.06,0000.00,0000.17,0000.29,0000.04,-000.01,19.4,25.8,,00.0,0643.4,30.9
2021-11-26T12:08:00Z,00000200,01000000,-000.01,-000.10,0000.30,-000.22,0000.19,0000.05,0000.07,-000.19,-000.09,19.3,25.8,,00.0,0643.4,30.9
2021-11-26T12:09:00Z,00000200,01000000,0000.16,0000.14,0000.00,-000.45,-000.02,-000.12,0000.08,0000.59,-000.15,19.3,25.8,,00.0,0643.4,30.8
2021-11-26T12:10:00Z,00000200,01000000,0000.06,0000.08,-000.18,-000.29,0000.22,-000.21,0000.14,-000.28,0000.37,19.2,25.7,,00.0,0643.3,30.8
2021-11-26T12:11:00Z,00000200,01000000,0000.50,0000.22,0000.02,-000.38,0000.31,0000.34,-000.02,0000.17,0000.22,19.1,25.7,,00.0,0643.3,30.9
2021-11-26T12:12:00Z,00000200,01000000,0000.07,0000.23,-000.26,0000.16,0000.21,-000.12,0000.34,0000.34,-000.18,19.2,25.7,,00.0,0643.3,30.9
2021-11-26T12:13:00Z,00000200,01000000,0001.05,0000.33,0000.33,-000.21,0000.13,0000.14,0000.44,0000.26,0000.36,19.2,25.7,,00.0,0643.3,30.9
2021-11-26T12:14:00Z,00000200,01000000,-000.56,0000.03,0000.24,-000.02,0000.19,-000.03,0000.13,0000.17,0000.12,19.2,25.7,,00.0,0643.3,30.9
2021-11-26T12:15:00Z,00000200,01000000,0001.18,0000.15,0000.10,0000.02,0000.26,-000.03,0000.02,-000.08,-000.07,19.3,25.7,,00.0,0643.3,30.9
2021-11-26T12:16:00Z,00000200,01000000,0001.26,0000.02,-000.30,-000.35,-000.11,0000.28,-000.04,0000.04,0000.28,19.3,25.7,,00.0,0643.2,30.9
2021-11-26T12:17:00Z,00000200,01000000,-000.38,0000.30,0000.35,-000.55,-000.04,0000.12,0000.17,0000.27,0000.16,19.3,25.7,,00.0,0643.2,30.9
2021-11-26T12:18:00Z,00000200,01000000,0000.24,0000.11,0000.08,0000.06,0000.25,-000.10,0000.45,-000.05,-000.11,19.4,25.8,,00.0,0643.2,30.9
2021-11-26T12:19:00Z,00000200,01000000,-000.16,-000.19,-000.25,-000.23,-000.04,-000.24,-000.41,0000.11,-000.20,19.4,25.8,,00.0,0643.2,30.9
2021-11-26T12:20:00Z,00000200,01000000,0000.22,0000.01,0000.05,-000.29,0000.10,0000.18,0000.05,-000.31,0000.00,19.4,25.8,,00.0,0643.2,30.9
2021-11-26T12:21:00Z,00000200,01000000,-000.28,-000.05,0000.04,-000.55,-000.16,0000.02,-000.03,0000.18,0000.48,19.3,25.8,,00.0,0643.1,30.9
2021-11-26T12:22:00Z,00000200,01000000,-000.46,-000.37,0000.09,0000.17,0000.28,-000.09,0000.02,0000.32,-000.43,19.3,25.7,,00.0,0643.1,30.9
2021-11-26T12:23:00Z,00000200,01000000,-000.09,0000.26,-000.19,0000.44,-000.14,0000.12,0000.44,0000.05,0000.55,19.2,25.7,,00.0,0643.1,30.8
2021-11-26T12:24:00Z,00000200,01000000,0000.41,0000.11,0000.26,0000.22,0000.11,0000.16,-000.13,-000.38,-000.09,19.1,25.6,,00.0,0643.1,30.8
2021-11-26T12:25:00Z,00000200,01000000,-000.12,0000.41,0000.37,-000.22,0000.29,-000.06,0000.13,0000.18,0000.06,19.1,25.6,,00.0,0643.0,30.8
2021-11-26T12:26:00Z,00000200,01000000,-000.10,0000.26,0000.16,0000.22,0000.28,-000.20,0000.10,0000.69,0000.26,19.0,25.6,,00.0,0643.0,30.8
2021-11-26T12:27:00Z,00000200,01000000,0000.43,-000.04,0000.03,-000.88,0000.21,-000.22,0000.39,-000.18,-000.10,19.0,25.6,,00.0,0643.0,30.8
2021-11-26T12:28:00Z,00000200,01000000,0000.46,0000.06,-000.01,-000.26,-000.01,-000.12,-000.07,0000.20,0000.24,19.0,25.6,,00.0,0643.0,30.8
2021-11-26T12:29:00Z,00000200,01000000,0000.35,0000.17,0000.13,0000.26,-000.00,0000.05,0000.31,0000.42,-000.05,19.1,25.6,,00.0,0643.0,30.9
2021-11-26T12:30:00Z,00000200,01000000,0000.58,0000.12,0000.04,0000.39,0000.36,-000.05,0000.27,-000.18,0000.34,19.2,25.6,,00.0,0643.0,30.9
2021-11-26T12:31:00Z,00000200,01000000,-000.16,0000.05,-000.04,-000.04,0000.15,-000.16,-000.13,-000.01,-000.09,19.2,25.6,,00.0,0643.0,30.9
2021-11-26T12:32:00Z,00000200,01000000,0000.98,-000.08,0000.29,0000.22,-000.03,0000.19,0000.28,0000.17,0000.04,19.3,25.7,,00.0,0643.0,30.9
2021-11-26T12:33:00Z,00000200,01000000,0000.91,0000.06,0000.18,0000.52,0000.34,0000.07,0000.04,0000.27,0000.20,19.3,25.7,,00.0,0643.0,30.9
2021-11-26T12:34:00Z,00000200,01000000,0000.50,0000.02,0000.25,0000.51,-000.03,-000.19,-000.25,-000.16,0000.14,19.3,25.7,,00.0,0642.9,30.9
2021-11-26T12:35:00Z,00000200,01000000,0000.36,-000.18,0000.23,0000.03,0000.19,0000.16,0000.46,0000.16,-000.13,19.4,25.7,,00.0,0642.9,30.9
2021-11-26T12:36:00Z,00000200,01000000,0000.40,0000.27,0000.17,0000.04,0000.06,-000.06,-000.20,-000.18,0000.13,19.4,25.7,,00.0,0642.9,30.9
2021-11-26T12:37:00Z,00000200,01000000,-000.02,0000.14,0000.12,-000.03,0000.05,0000.05,0000.22,-000.04,-000.07,19.5,25.8,,00.0,0642.9,31.0
2021-11-26T12:38:00Z,00000200,01000000,0000.75,0000.08,0000.03,0000.62,-000.03,-000.17,-000.03,0000.34,0000.13,19.5,25.8,,00.0,0642.9,30.9
2021-11-26T12:39:00Z,00000200,01000000,0000.17,0000.18,0000.08,-000.08,0000.05,0000.09,0000.28,0000.08,-000.31,19.5,25.8,,00.0,0642.9,30.9
2021-11-26T12:40:00Z,00000200,01000000,0000.73,0000.29,0000.21,-000.21,0000.27,-000.00,0000.11,0000.13,0000.47,19.4,25.8,,00.0,0642.9,30.9
2021-11-26T12:41:00Z,00000200,01000000,0000.32,0000.18,0000.23,0000.02,0000.15,-000.02,-000.04,0000.01,0000.24,19.4,25.8,,00.0,0642.9,30.9
2021-11-26T12:42:00Z,00000200,01000000,0001.19,-000.11,-000.13,-000.05,0000.00,-000.06,0000.69,0000.27,-000.15,19.4,25.8,,00.0,0642.9,30.9
2021-11-26T12:43:00Z,00000200,01000000,0000.43,0000.16,-000.26,-000.14,-000.05,-000.35,-000.50,0000.19,-000.13,19.4,25.8,,00.0,0642.9,30.9
2021-11-26T12:44:00Z,00000200,01000000,0000.19,-000.00,-000.07,-000.17,0000.24,0000.04,-000.01,-000.15,0000.25,19.4,25.8,,00.0,0642.9,30.9
2021-11-26T12:45:00Z,00000200,01000000,0000.61,0000.06,0000.09,-000.21,-000.19,-000.03,0000.30,0000.22,0000.35,19.4,25.8,,00.0,0642.9,31.0
2021-11-26T12:46:00Z,00000200,01000000,0000.70,0000.20,0000.11,-000.49,0000.06,-000.34,-000.28,-000.02,-000.05,19.5,25.8,,00.0,0642.8,31.0
2021-11-26T12:47:00Z,00000200,01000000,0000.41,-000.18,-000.01,-000.30,0000.01,0000.07,0000.61,0000.28,0000.00,19.5,25.9,,00.0,0642.9,31.0
2021-11-26T12:48:00Z,00000200,01000000,0000.96,0000.14,0000.15,0000.20,0000.11,0000.07,0000.04,0000.05,0000.06,19.5,25.9,,00.0,0642.9,31.0
2021-11-26T12:49:00Z,00000200,01000000,0000.46,0000.04,-000.09,0000.10,0000.13,0000.16,-000.15,-000.15,-000.12,19.5,25.9,,00.0,0642.9,30.9
2021-11-26T12:50:00Z,00000200,01000000,0000.44,0000.24,0000.13,0000.42,-000.11,0000.28,-000.03,-000.08,0000.06,19.4,25.9,,00.0,0642.9,30.9
2021-11-26T12:51:00Z,00000200,01000000,0000.43,0000.03,0000.41,0000.55,0000.05,0000.20,0000.03,0000.08,-000.04,19.4,25.8,,00.0,0642.9,30.9
2021-11-26T12:52:00Z,00000200,01000000,-000.41,0000.18,0000.24,-000.78,0000.27,0000.09,0000.08,0000.18,0000.03,19.3,25.8,,00.0,0642.9,30.9
2021-11-26T12:53:00Z,00000200,01000000,0000.76,0000.30,0000.20,-000.41,-000.06,0000.12,0000.04,-000.39,0000.18,19.2,25.7,,00.0,0642.9,30.9
2021-11-26T12:54:00Z,00000200,01000000,0001.06,-000.23,0000.10,0000.27,0000.04,0000.38,0000.11,0000.18,0000.01,19.2,25.7,,00.0,0642.8,30.8
2021-11-26T12:55:00Z,00000200,01000000,0000.85,0000.52,0000.09,0000.52,0000.28,0000.07,0000.08,0000.37,0000.20,19.1,25.7,,00.0,0642.8,30.8
2021-11-26T12:56:00Z,00000200,01000000,0000.48,0000.07,0000.20,0000.04,0000.21,0000.18,0000.07,-000.09,-000.07,19.1,25.7,,00.0,0642.9,30.9
2021-11-26T12:57:00Z,00000200,41000000,,,,,,,-000.26,-000.01,-000.14,19.1,25.7,,00.0,0642.9,30.9
2021-11-26T12:58:00Z,00000200,61000000,,,,,,,0000.40,0000.06,-000.23,18.8,25.8,,00.0,0642.0,30.9
2021-11-26T12:59:00Z,00000200,21000000,,,,,,,-000.13,-000.10,0000.37,18.8,25.9,,00.0,0641.9,30.9
